DMSP 5D-2 F13 DEB, 40414

Orbit data source: Space-Track

DMSP 5D-2 F13 DEB, 40414 is space debris in SSO originally from a launch on Fri, 24 Mar 1995 UTC launched from the Air Force Western Test Range (AFWTR). Debris objects in space refer to the collection of defunct objects orbiting the Earth. Examples of debris include non-operational satellites, rocket bodies, and fragments generated from explosions, collisions, or faulty payload assembly.

Loading next visibility...
Identifier
40414, 1995-015AB
Orbit
SSO
Last TLE update
1 day ago
Origin
Manufacturer
Unknown
Mission
Spacecraft
Bus & Motor
Unknown
Mass
Unknown
Launch date (UTC)
1995-03-24 (30 years ago)
Launch vehicle
Unknown
Launch site
Air Force Western Test Range (AFWTR)
Object type
Payload
Rocket body
Debris
Shape & HBR
Unknown
Radar Cross Section
Small (<0.1 m²)

Expand to show TLE details & history

TLE from 1 day ago
0 DMSP 5D-2 F13 DEB
1 40414U 95015AB  25188.02600490  .00001669  00000-0  65532-3 0  9994
2 40414  98.6537 212.7857 0010629 209.6397 150.4184 14.30656018537898
Epoch: 2025-07-07T00:37Z
TLE epoch observation values (Epoch: 2025-07-07T00:37:26.823Z)
Latitude
-0.00005°
Longitude
-81.81731°
Altitude
799.098 km
Speed
7.451 km/s
True Right ascension
14h 11m 08s
True Declination
0° 00' 00"
Sunlit
Object was in daylight at epoch
Visualization orbit readout
Latitude
24.13869°
Longitude
103.35524°
Altitude
787.581 km
Speed
7.465 km/s
Apparent Right ascension
04h 39m 34s
Apparent Declination
-7° 18' 23"
Sunlit
Object is in daylight
Visualization observer readout
Local Sidereal Time
19:39:20
Azimuth
63.265° ENE
Elevation
-38.321°
Doppler factor
1
Orbital elements
Apogee altitude
794.296 km
Perigee altitude
779.065 km
Semi-major axis
7,164.818 km
Eccentricity
0.00106
Inclination
98.6537°
RAAN
212.7857°
Arg. of periapsis
209.6397°
True anomaly
Unknown
Mean anomaly
150.4184°
Eccentric anomaly
Unknown
Mean motion
3.57878 °/min
Orbital period
100.59 mins
BSTAR
0.00065532
Loading maneuver chart data...
Loading SW <> Apogee altitude chart data...

DMSP 5D-2 F13 DEB Visibility forecast

Observer location: undefined°, undefined°

Span
Click to sort rows by Start time (UTC) header in descending order
Start Az.
Max El. time (UTC)
Max El. Az.
Max El.
End time (UTC)
End Az.
9 mins2025-07-08 14:07:46.234Z25.882° NE2025-07-08 14:12:46.234Z113.183° SE36.849°2025-07-08 14:16:46.234Z172.64° S
5 mins2025-07-08 15:49:46.234Z322.015° NNW2025-07-08 15:51:46.234Z291.982° WNW19.064°2025-07-08 15:54:46.234Z253.709° W
8 mins2025-07-09 01:25:46.234Z154.016° SSE2025-07-09 01:29:46.234Z52.717° ENE43.05°2025-07-09 01:33:46.234Z352.709° N
|